This demonstration page uses our WeatherBlox Daily Observations layout. Learn more.

Left ArrowRight Arrow

Hourly Observations for July 1, 2016

Temp ( °F °C ) Dew Point ( °F °C ) Humidity (%) Winds ( mph kmh ) Pressure ( in mb ) Visibility ( mi km ) Precip ( " mm )
12:53 am 00:53 Clear 62 16.7 58 14.4 86 86 N N/A 29.97 1015 10 16 N/A
1:53 am 01:53 Clear 61 16.1 57 13.9 87 87 N N/A 29.96 1014 10 16 N/A
2:53 am 02:53 Clear 60 15.6 57 13.9 90 90 N N/A 29.93 1014 10 16 N/A
3:53 am 03:53 Mostly Clear 61 16.1 58 14.4 90 90 N N/A 29.93 1013 10 16 N/A
4:53 am 04:53 Cloudy 62 16.7 60 15.6 93 93 N N/A 29.94 1014 10 16 N/A
5:53 am 05:53 Mostly Cloudy 63 17.2 60 15.6 90 90 N N/A 29.93 1014 10 16 N/A
6:53 am 06:53 Cloudy 65 18.3 61 16.1 87 87 N N/A 29.94 1014 10 16 N/A
7:53 am 07:53 Cloudy 66 18.9 63 17.2 90 90 N N/A 29.94 1014 10 16 N/A
8:53 am 08:53 Cloudy 67 19.4 61 16.1 81 81 NW 8 13 29.96 1015 10 16 N/A
9:53 am 09:53 Cloudy 68 20 64 17.8 87 87 N N/A 29.97 1015 9 14 0.03 0.76
10:53 am 10:53 Cloudy 71 21.7 63 17.2 76 76 WSW 5 7 29.98 1015 10 16 N/A
11:53 am 11:53 Mostly Cloudy 74 23.3 64 17.8 71 71 WNW 6 9 29.99 1016 10 16 N/A
12:35 pm 12:35 Mostly Cloudy 76 24.4 64 17.8 67 67 NW 8 13 30.00 1016 10 16 N/A
12:53 pm 12:53 Cloudy 76 24.4 64 17.8 67 67 NNW 6 9 29.99 1016 10 16 N/A
1:02 pm 13:02 Mostly Cloudy 78 25.6 65 18.3 64 64 VRB 5 7 30.00 1016 10 16 N/A
1:53 pm 13:53 Partly Cloudy 79 26.1 63 17.2 58 58 N 7 11 29.99 1016 10 16 N/A
2:53 pm 14:53 Mostly Sunny 82 27.8 61 16.1 49 49 NW 12 19 29.99 1016 10 16 N/A
3:53 pm 15:53 Partly Cloudy 83 28.3 61 16.1 48 48 NNW 12 19 29.98 1015 10 16 N/A
4:53 pm 16:53 Partly Cloudy 83 28.3 57 13.9 41 41 NNW 9 15 29.99 1016 10 16 N/A
5:53 pm 17:53 Sunny 82 27.8 56 13.3 41 41 WNW 13 20 30.00 1016 10 16 N/A
6:53 pm 18:53 Mostly Sunny 80 26.7 54 12.2 41 41 NNW 12 19 30.00 1016 10 16 N/A
7:53 pm 19:53 Partly Cloudy 78 25.6 54 12.2 43 43 NW 14 22 30.01 1016 10 16 N/A
8:53 pm 20:53 Sunny 75 23.9 56 13.3 52 52 NNW 9 15 30.03 1017 10 16 N/A
9:53 pm 21:53 Clear 71 21.7 55 12.8 57 57 NNW 6 9 30.04 1017 10 16 N/A
10:53 pm 22:53 Clear 67 19.4 55 12.8 66 66 NNW 7 11 30.08 1019 10 16 N/A
11:53 pm 23:53 Clear 65 18.3 54 12.2 68 68 NNW 6 9 30.09 1019 10 16 N/A

Powered by AerisWeather